Weather History for Galax, VA

Change the Weather History Date:

Monday, December 24, 2012

  Actual Average (KBLF) Record (KBLF)
Temperature  
Mean Temperature 44 °F 35 °F  
Max Temperature 46 °F 43 °F 66 °F (1964)
Min Temperature 41 °F 28 °F -8 °F (1983)
Degree Days  
Heating Degree Days 22 30  
Month to date heating degree days 650  
Since 1 July heating degree days 1553  
Cooling Degree Days 0 0  
Month to date cooling degree days 0  
Year to date cooling degree days 853  
Moisture  
Dew Point 41 °F    
Average Humidity 93    
Maximum Humidity 100    
Minimum Humidity 87    
Precipitation  
Precipitation 0.32 in 0.09 in 1.04 in (1979)
Month to date precipitation 2.29  
Year to date precipitation 39.01  
Snow  
Snow 0.00 in - - ()
Month to date snowfall  
Since 1 July snowfall  
Snow Depth -    
Sea Level Pressure  
Sea Level Pressure 29.91 in    
Wind  
Wind Speed 3 mph (South)    
Max Wind Speed 12 mph    
Max Gust Speed 17 mph    
Visibility 6 miles    
Events Fog , Rain    
T = Trace of Precipitation, MM = Missing Value Source: NWS Daily Summary

Daily Weather History Graph

Daily Weather History Graph

Search for Another Location

Airport:

Trip Planner

Search our weather history database for the weather conditions in past years. The results will help you decide how hot, cold, wet, or windy it might be!

Date:

Astronomy

Dec. 24, 2012 Rise Set
Actual Time 7:33 AM EST 5:12 PM EST
Civil Twilight 7:04 AM EST 5:41 PM EST
Nautical Twilight 6:32 AM EST 6:14 PM EST
Astronomical Twilight 6:00 AM EST 6:45 PM EST
Moon 2:37 PM EST (12/24) 4:12 AM EST (12/24)
Length of Visible Light 10h 36m
Length of Day
9h 38m
Waxing Gibbous, 88% of the Moon is Illuminated
Dec 24
Waxing Gibbous
Dec 28
Full
Jan 4
Last Quarter
Jan 11
New
Jan 18
First Quarter

Hourly Weather History & Observations

Time (EST) Temp. Windchill Dew Point Humidity Pressure Visibility Wind Dir Wind Speed Gust Speed Precip Events Conditions
12:15 AM 42.8 °F - 39.2 °F 87% 30.01 in 10.0 mi Calm Calm - N/A   Mostly Cloudy
12:35 AM 42.8 °F 40.1 °F 39.2 °F 87% 30.00 in 10.0 mi NNW 4.6 mph - N/A   Mostly Cloudy
12:55 AM 41.0 °F - 39.2 °F 93% 29.99 in 10.0 mi Calm Calm - N/A   Overcast
1:15 AM 41.0 °F - 39.2 °F 93% 29.99 in 10.0 mi Calm Calm - N/A   Mostly Cloudy
1:35 AM 41.0 °F 39.0 °F 39.2 °F 93% 29.99 in 10.0 mi South 3.5 mph - N/A   Mostly Cloudy
1:55 AM 41.0 °F - 39.2 °F 93% 29.99 in 10.0 mi Calm Calm - N/A   Overcast
2:15 AM 42.8 °F - 41.0 °F 93% 29.99 in 10.0 mi Calm Calm - N/A   Overcast
2:35 AM 44.6 °F - 41.0 °F 87% 29.99 in 10.0 mi Calm Calm - N/A   Mostly Cloudy
2:55 AM 44.6 °F - 41.0 °F 87% 29.98 in 10.0 mi Calm Calm - N/A   Overcast
3:15 AM 44.6 °F - 41.0 °F 87% 29.98 in 10.0 mi Calm Calm - N/A   Overcast
3:35 AM 44.6 °F 43.1 °F 42.8 °F 93% 29.98 in 10.0 mi South 3.5 mph - N/A   Overcast
3:55 AM 44.6 °F - 41.0 °F 87% 29.96 in 10.0 mi Calm Calm - N/A Rain Light Rain
4:15 AM 42.8 °F 41.1 °F 41.0 °F 93% 29.95 in 10.0 mi NE 3.5 mph - N/A Rain Light Rain
4:35 AM 42.8 °F 41.1 °F 41.0 °F 93% 29.95 in 4.0 mi ESE 3.5 mph - 0.01 in Rain Rain
4:55 AM 42.8 °F 41.1 °F 39.2 °F 87% 29.95 in 1.2 mi ESE 3.5 mph - 0.02 in Rain Rain
5:15 AM 42.8 °F - 41.0 °F 93% 29.95 in 1.8 mi Calm Calm - 0.04 in Rain Light Rain
5:35 AM 42.8 °F 41.1 °F 41.0 °F 93% 29.95 in 1.0 mi SSE 3.5 mph - 0.08 in Rain Light Rain
5:55 AM 42.8 °F 41.1 °F 41.0 °F 93% 29.94 in 0.8 mi SSE 3.5 mph - 0.01 in Rain Light Rain
6:15 AM 42.8 °F 41.1 °F 41.0 °F 93% 29.94 in 0.5 mi SE 3.5 mph - 0.02 in Rain Light Rain
6:35 AM 44.6 °F 43.1 °F 42.8 °F 93% 29.95 in 7.0 mi South 3.5 mph - 0.03 in Rain Light Rain
6:55 AM 42.8 °F 38.6 °F 42.8 °F 100% 29.95 in 5.0 mi South 6.9 mph - 0.02 in Rain Light Rain
7:15 AM 42.8 °F 39.3 °F 42.8 °F 100% 29.94 in 7.0 mi SSE 5.8 mph - 0.05 in Rain Light Rain
7:35 AM 42.8 °F 38.6 °F 41.0 °F 93% 29.93 in 7.0 mi South 6.9 mph - 0.09 in Rain Rain
7:55 AM 42.8 °F 38.6 °F 41.0 °F 93% 29.92 in 10.0 mi SSE 6.9 mph - 0.01 in Rain Light Rain
8:15 AM 42.8 °F 40.1 °F 41.0 °F 93% 29.91 in 5.0 mi SSE 4.6 mph - 0.02 in Rain Rain
8:35 AM 42.8 °F 39.3 °F 42.8 °F 100% 29.92 in 10.0 mi South 5.8 mph - 0.03 in   Light Drizzle
8:55 AM 44.6 °F 40.2 °F 42.8 °F 93% 29.91 in 10.0 mi South 8.1 mph - N/A   Light Drizzle
9:15 AM 44.6 °F 39.7 °F 42.8 °F 93% 29.91 in 7.0 mi South 9.2 mph - N/A Rain Light Rain
9:35 AM 42.8 °F 37.0 °F 41.0 °F 93% 29.92 in 4.0 mi South 10.4 mph 16.1 mph N/A   Light Drizzle
9:55 AM 42.8 °F 38.0 °F 41.0 °F 93% 29.91 in 0.8 mi South 8.1 mph - N/A   Overcast
10:15 AM 41.0 °F 37.1 °F 39.2 °F 93% 29.92 in 5.0 mi South 5.8 mph - 0.02 in   Overcast
10:35 AM 41.0 °F 35.8 °F 39.2 °F 93% 29.91 in 7.0 mi SSE 8.1 mph - 0.04 in   Overcast
10:55 AM 41.0 °F 34.7 °F 39.2 °F 93% 29.91 in 10.0 mi South 10.4 mph 16.1 mph 0.01 in   Overcast
11:15 AM 41.0 °F 36.4 °F 39.2 °F 93% 29.89 in 10.0 mi South 6.9 mph - 0.02 in   Overcast
11:35 AM 41.0 °F 35.2 °F 39.2 °F 93% 29.89 in 10.0 mi South 9.2 mph - 0.02 in   Overcast
11:55 AM 41.0 °F 34.7 °F 39.2 °F 93% 29.88 in 2.5 mi South 10.4 mph 17.3 mph N/A   Overcast
12:15 PM 41.0 °F 38.0 °F 39.2 °F 93% 29.88 in 0.2 mi South 4.6 mph - N/A Fog Fog
12:35 PM 41.0 °F 35.2 °F 39.2 °F 93% 29.87 in 0.2 mi South 9.2 mph 17.3 mph N/A   Overcast
12:55 PM 41.0 °F 34.3 °F 39.2 °F 93% 29.87 in 0.2 mi South 11.5 mph - N/A   Overcast
1:15 PM 41.0 °F 35.8 °F 39.2 °F 93% 29.83 in 10.0 mi SSE 8.1 mph - N/A   Overcast
1:35 PM 41.0 °F 35.8 °F 39.2 °F 93% 29.84 in 10.0 mi South 8.1 mph - N/A   Overcast
1:55 PM 42.8 °F 37.5 °F 41.0 °F 93% 29.85 in 10.0 mi South 9.2 mph - N/A   Overcast
2:15 PM 42.8 °F 38.6 °F 41.0 °F 93% 29.85 in 10.0 mi South 6.9 mph - N/A   Overcast
2:35 PM 42.8 °F 38.0 °F 41.0 °F 93% 29.85 in 2.0 mi South 8.1 mph - N/A   Overcast
2:55 PM 42.8 °F 38.6 °F 41.0 °F 93% 29.84 in 0.2 mi SSE 6.9 mph - N/A Fog Fog
3:15 PM 42.8 °F 38.6 °F 39.2 °F 87% 29.84 in 0.2 mi South 6.9 mph - N/A Fog Fog
3:35 PM 42.8 °F 38.6 °F 41.0 °F 93% 29.83 in 0.2 mi South 6.9 mph - N/A Fog Fog
3:55 PM 42.8 °F 38.6 °F 41.0 °F 93% 29.84 in 0.8 mi South 6.9 mph - N/A   Overcast
4:15 PM 42.8 °F 39.3 °F 41.0 °F 93% 29.85 in 3.0 mi South 5.8 mph - N/A   Overcast
4:35 PM 42.8 °F 41.1 °F 41.0 °F 93% 29.85 in 2.0 mi SSE 3.5 mph - N/A   Overcast
4:55 PM 42.8 °F 41.1 °F 41.0 °F 93% 29.85 in 0.2 mi South 3.5 mph - N/A Rain Light Rain
5:15 PM 42.8 °F 41.1 °F 41.0 °F 93% 29.86 in 0.2 mi South 3.5 mph - N/A Fog Fog
5:35 PM 41.0 °F 39.0 °F 39.2 °F 93% 29.86 in 0.5 mi South 3.5 mph - 0.01 in   Light Drizzle
5:55 PM 41.0 °F - 39.2 °F 93% 29.86 in 0.2 mi Calm Calm - N/A Fog Fog
6:15 PM 41.0 °F 39.0 °F 39.2 °F 93% 29.87 in 0.2 mi South 3.5 mph - N/A Fog Fog
6:35 PM 41.0 °F - 39.2 °F 93% 29.88 in 1.0 mi Calm Calm - N/A   Overcast
6:55 PM 41.0 °F - 39.2 °F 93% 29.88 in 0.8 mi Calm Calm - N/A   Overcast
7:15 PM 42.8 °F - 41.0 °F 93% 29.88 in 1.0 mi Calm Calm - N/A   Overcast
7:35 PM 42.8 °F - 41.0 °F 93% 29.88 in 2.5 mi Calm Calm - N/A   Overcast
7:55 PM 42.8 °F - 41.0 °F 93% 29.89 in 4.0 mi Calm Calm - N/A   Overcast
8:15 PM 42.8 °F 41.1 °F 41.0 °F 93% 29.89 in 4.0 mi SSW 3.5 mph - N/A   Overcast
8:35 PM 42.8 °F 41.1 °F 41.0 °F 93% 29.89 in 5.0 mi SSW 3.5 mph - N/A   Overcast
8:55 PM 42.8 °F 41.1 °F 42.8 °F 100% 29.90 in 7.0 mi SW 3.5 mph - N/A   Overcast
9:15 PM 42.8 °F - 41.0 °F 93% 29.91 in 0.8 mi Calm Calm - N/A   Overcast
9:35 PM 42.8 °F 40.1 °F 42.8 °F 100% 29.92 in 7.0 mi SW 4.6 mph - N/A   Mostly Cloudy
9:55 PM 44.6 °F - 42.8 °F 93% 29.92 in 10.0 mi Calm Calm - N/A   Overcast
10:15 PM 44.6 °F 43.1 °F 44.6 °F 100% 29.91 in 10.0 mi SSW 3.5 mph - N/A   Overcast
10:35 PM 44.6 °F - 44.6 °F 100% 29.92 in 10.0 mi Calm Calm - N/A   Overcast
10:55 PM 44.6 °F - 44.6 °F 100% 29.92 in 10.0 mi Calm Calm - N/A   Overcast
11:15 PM 46.4 °F - 44.6 °F 93% 29.92 in 10.0 mi Calm Calm - N/A   Overcast
11:35 PM 46.4 °F 44.3 °F 44.6 °F 93% 29.93 in 10.0 mi West 4.6 mph - N/A   Overcast
11:55 PM 46.4 °F 44.3 °F 44.6 °F 93% 29.93 in 10.0 mi WNW 4.6 mph - N/A   Overcast